Location: Erlenbrunn
(49.1717°N, 7.6142°E)
Time: 18:42:34
(UTC+00:00)

PAINANI 1 - Visible Passes

Search period start: 22 June 2021 00:00
Search period end: 02 July 2021 00:00
Orbit: 438 x 446 km, 45.0° (Epoch: 21 June)

Date Brightness Start Highest point End Pass type
(mag) Time Alt. Az. Time Alt. Az. Time Alt. Az.
22 Jun ? 00:13:37 11° ESE 00:13:37 11° ESE 00:13:56 10° ESE visible
22 Jun ? 01:47:00 18° SW 01:49:08 35° SSE 01:52:25 10° E visible
23 Jun ? 01:07:40 28° SSW 01:08:25 32° SSE 01:11:37 10° E visible
24 Jun ? 00:28:20 27° SE 00:28:20 27° SE 00:30:49 10° ESE visible
24 Jun ? 02:01:48 10° WSW 02:05:11 42° S 02:08:34 10° ESE visible
24 Jun ? 23:49:00 16° ESE 23:49:00 16° ESE 23:49:59 10° ESE visible
25 Jun ? 01:22:23 20° WSW 01:24:27 42° S 01:27:49 10° ESE visible
26 Jun ? 00:43:06 37° SSW 00:43:42 41° S 00:47:04 10° ESE visible
26 Jun ? 02:17:57 10° W 02:21:13 34° SSW 02:24:28 10° SE visible
27 Jun ? 00:03:54 32° SE 00:03:54 32° SE 00:06:17 10° ESE visible
27 Jun ? 01:37:17 11° WSW 01:40:28 37° S 01:43:47 10° ESE visible
27 Jun ? 23:24:54 14° ESE 23:24:54 14° ESE 23:25:30 10° ESE visible
28 Jun ? 00:58:19 26° WSW 00:59:43 39° S 01:03:04 10° ESE visible
28 Jun ? 02:34:27 10° WSW 02:37:04 19° SSW 02:39:41 10° SSE visible
29 Jun ? 00:20:00 32° SE 00:20:00 32° SE 00:22:19 10° ESE visible
29 Jun ? 01:53:31 10° WSW 01:56:22 22° SSW 01:59:12 10° SSE visible
29 Jun ? 20:22:38 10° SSE 20:23:34 11° SSE 20:24:31 10° SE visible
29 Jun ? 21:57:33 10° SW 22:00:09 28° S 22:00:09 28° S visible
29 Jun?23:43:22ESE23:43:22ESE23:33:43WSWvisible
30 Jun ? 01:17:01 20° SSE 01:17:01 20° SSE 01:18:38 10° SE visible
30 Jun ? 21:16:56 10° SW 21:19:58 27° SSE 21:22:41 12° ESE visible
30 Jun ? 22:54:02 10° WSW 22:56:07 29° SW 22:56:07 29° SW visible
01 Jul ? 20:36:21 10° SSW 20:39:13 23° SSE 20:42:07 10° ESE visible
01 Jul ? 22:13:16 10° WSW 22:16:38 41° S 22:17:23 36° SE visible
